{"data":{"norad_id":67684,"intl_designator":"1998-067YA","name":"CORAL","alt_names":[],"object_type":"PAYLOAD","status":"ACTIVE","operator":null,"country":"IT","launch_date":"1998-11-20","launch_site_code":"TYMSC","launch_vehicle":null,"mission":null,"orbit_class":"UNKNOWN","rcs_meters":null,"size_class":null,"mass_kg":null,"dimensions":null,"purposes":["station"],"wikipedia_slug":null,"has_3d_model":false,"image_url":null,"decayed_at":null,"tle_current":{"epoch":"2026-07-31T14:54:47.018592Z","epoch_age_seconds":4414121,"freshness":"OLD","line1":"1 67684U 98067YA  26212.62137753  .06930230  12221-4  10997-2 0  9991","line2":"2 67684  51.5992  54.2541 0013311 279.5039  80.4480 16.32675236 27430","mean_motion":16.32675236,"eccentricity":0.0013311,"inclination_deg":51.5992,"raan_deg":54.2541,"arg_perigee_deg":279.5039,"mean_anomaly_deg":80.448,"bstar":0.0010997,"rev_number":2743,"period_min":88.19880207946,"perigee_km":176.62352876758,"apogee_km":194.09687101313,"semimajor_km":6563.4971998904,"source":"CELESTRAK","updated_at":"2026-08-01T09:00:35.361412Z"}}}